Location: Home
(42.5358°N, 72.7383°W)
Time: 17:49:13
(UTC-04:00)

Explorer 11/Cluster Stage 4 - Pass Details

Date: 03 August 2024
Orbit: 464 x 1208 km, 28.8° (Epoch: 19 September)

Event Time Altitude Azimuth Distance (km) Brightness Sun altitude
Rises 03:29:36 0° 238° (WSW) 4,024 - -20.6°
Reaches altitude 10° 03:32:51 10° 227° (SW) 3,113 - -20.2°
Exits shadow 03:37:38 26° 192° (SSW) 2,184 8.3 -19.7°
Maximum altitude 03:39:16 28° 173° (S) 2,101 8.4 -19.5°
Drops below altitude 10° 03:45:38 10° 119° (ESE) 3,081 9.8 -18.7°
Sets 03:48:49 0° 108° (ESE) 3,976 10.5 -18.3°
